When you browse on this site, cookies collect data to enhance your experience and personalize the content and advertising you see.
Visit our Privacy Policy to learn more. By continuing to use the site, you agree to this use of cookies and data.
  • In Germany
  • List of Countries
  • For 7 days
  • Water Temperature
  • Weather Map
  • Weather Widgets
  • user-avatar
    Login

    Hourly Weather La Rioja

    Today, 9 December, Monday

    Time Temperature Precipitation Wind Pressure Humidity
    00:00 +27°C° 0 mm 1 mps 714 mmHg 45%
    01:00 +26°C° 0 mm 1 mps 714 mmHg 46%
    02:00 +24°C° 0 mm 0 mps 713 mmHg 48%
    03:00 +23°C° 0 mm 0 mps 713 mmHg 49%
    04:00 +23°C° 0 mm 0 mps 713 mmHg 50%
    05:00 +22°C° 0 mm 0 mps 713 mmHg 50%
    06:00 +26°C° 0 mm 1 mps 714 mmHg 47%
    07:00 +27°C° 0 mm 1 mps 714 mmHg 43%
    08:00 +29°C° 0 mm 1 mps 715 mmHg 39%
    09:00 +30°C° 0 mm 2 mps 715 mmHg 35%
    10:00 +31°C° 0 mm 2 mps 714 mmHg 32%
    11:00 +34°C° 0 mm 3 mps 714 mmHg 28%
    12:00 +35°C° 0 mm 4 mps 714 mmHg 25%
    13:00 +35°C° 0 mm 4 mps 713 mmHg 23%
    14:00 +36°C° 0 mm 4 mps 712 mmHg 21%
    15:00 +36°C° 0 mm 4 mps 712 mmHg 20%
    16:00 +36°C° 0 mm 4 mps 711 mmHg 19%
    17:00 +37°C° 0 mm 4 mps 710 mmHg 18%
    18:00 +35°C° 0 mm 3 mps 711 mmHg 20%
    19:00 +34°C° 0 mm 3 mps 711 mmHg 22%
    20:00 +32°C° 0 mm 2 mps 711 mmHg 24%
    21:00 +31°C° 0 mm 2 mps 712 mmHg 26%
    22:00 +30°C° 0 mm 1 mps 712 mmHg 29%
    23:00 +30°C° 0 mm 1 mps 712 mmHg 31%

    Tomorrow, 10 December, Tuesday

    Time Temperature Precipitation Wind Pressure Humidity
    00:00 +29°C° 0 mm 1 mps 712 mmHg 34%
    01:00 +29°C° 0 mm 2 mps 712 mmHg 36%
    02:00 +28°C° 0 mm 2 mps 712 mmHg 39%
    03:00 +28°C° 0 mm 2 mps 712 mmHg 40%
    04:00 +27°C° 0 mm 1 mps 712 mmHg 41%
    05:00 +27°C° 0 mm 1 mps 712 mmHg 43%
    06:00 +28°C° 0 mm 2 mps 712 mmHg 40%
    07:00 +29°C° 0 mm 2 mps 713 mmHg 36%
    08:00 +30°C° 0 mm 2 mps 713 mmHg 33%
    09:00 +32°C° 0 mm 2 mps 713 mmHg 31%
    10:00 +34°C° 0 mm 3 mps 713 mmHg 28%
    11:00 +35°C° 0 mm 3 mps 713 mmHg 26%
    12:00 +36°C° 0 mm 3 mps 712 mmHg 24%
    13:00 +37°C° 0 mm 3 mps 712 mmHg 22%
    14:00 +38°C° 0 mm 3 mps 711 mmHg 21%
    15:00 +38°C° 0 mm 3 mps 710 mmHg 20%
    16:00 +39°C° 0 mm 3 mps 710 mmHg 19%
    17:00 +39°C° 0 mm 3 mps 709 mmHg 18%
    18:00 +38°C° 0 mm 3 mps 709 mmHg 20%
    19:00 +36°C° 0 mm 2 mps 710 mmHg 21%
    20:00 +35°C° 0 mm 2 mps 710 mmHg 23%
    21:00 +34°C° 0 mm 2 mps 710 mmHg 26%
    22:00 +32°C° 0 mm 2 mps 710 mmHg 30%
    23:00 +31°C° 0 mm 2 mps 711 mmHg 34%

    Day after tomorrow, 11 December, Wednesday

    Time Temperature Precipitation Wind Pressure Humidity
    00:00 +31°C° 0 mm 1 mps 710 mmHg 35%
    01:00 +30°C° 0 mm 1 mps 710 mmHg 37%
    02:00 +30°C° 0 mm 1 mps 709 mmHg 38%
    03:00 +29°C° 0 mm 1 mps 709 mmHg 39%
    04:00 +29°C° 0 mm 1 mps 708 mmHg 40%
    05:00 +28°C° 0 mm 1 mps 708 mmHg 40%
    06:00 +30°C° 0 mm 2 mps 708 mmHg 37%
    07:00 +31°C° 0 mm 2 mps 708 mmHg 34%
    08:00 +34°C° 0 mm 3 mps 709 mmHg 31%
    09:00 +35°C° 0 mm 3 mps 708 mmHg 29%
    10:00 +36°C° 0 mm 2 mps 708 mmHg 27%
    11:00 +38°C° 0 mm 2 mps 708 mmHg 25%
    12:00 +39°C° 0 mm 2 mps 707 mmHg 23%
    13:00 +40°C° 0 mm 2 mps 707 mmHg 22%
    14:00 +41°C° 0 mm 2 mps 706 mmHg 20%
    15:00 +42°C° 0 mm 3 mps 705 mmHg 19%
    16:00 +42°C° 0 mm 3 mps 705 mmHg 19%
    17:00 +43°C° 0 mm 4 mps 704 mmHg 18%
    18:00 +40°C° 0 mm 3 mps 704 mmHg 20%
    19:00 +39°C° 0 mm 3 mps 705 mmHg 22%
    20:00 +38°C° 0 mm 2 mps 706 mmHg 23%
    21:00 +36°C° 0 mm 4 mps 707 mmHg 26%
    22:00 +35°C° 0 mm 6 mps 708 mmHg 29%
    23:00 +34°C° 0 mm 8 mps 708 mmHg 31%

    12 December, Thursday

    Time Temperature Precipitation Wind Pressure Humidity
    00:00 +33°C° 0 mm 6 mps 709 mmHg 36%
    01:00 +30°C° 0 mm 4 mps 709 mmHg 41%
    02:00 +29°C° 0 mm 2 mps 710 mmHg 46%
    03:00 +28°C° 0 mm 2 mps 710 mmHg 48%
    04:00 +28°C° 0 mm 1 mps 711 mmHg 50%
    05:00 +27°C° 0 mm 1 mps 712 mmHg 52%
    06:00 +28°C° 0 mm 2 mps 712 mmHg 49%
    07:00 +28°C° 0 mm 3 mps 713 mmHg 46%
    08:00 +28°C° 0 mm 3 mps 714 mmHg 43%
    09:00 +29°C° 0 mm 3 mps 714 mmHg 41%
    10:00 +30°C° 0 mm 4 mps 714 mmHg 39%
    11:00 +30°C° 0 mm 4 mps 714 mmHg 37%
    12:00 +32°C° 0 mm 4 mps 713 mmHg 35%
    13:00 +33°C° 0 mm 3 mps 713 mmHg 32%
    14:00 +34°C° 0 mm 3 mps 712 mmHg 30%
    15:00 +34°C° 0 mm 4 mps 711 mmHg 28%
    16:00 +34°C° 0 mm 4 mps 711 mmHg 27%
    17:00 +34°C° 0 mm 4 mps 710 mmHg 25%
    18:00 +33°C° 0 mm 4 mps 711 mmHg 27%
    19:00 +31°C° 0 mm 3 mps 711 mmHg 28%
    20:00 +30°C° 0 mm 3 mps 712 mmHg 30%
    21:00 +30°C° 0 mm 3 mps 712 mmHg 32%
    22:00 +29°C° 0 mm 2 mps 713 mmHg 34%
    23:00 +28°C° 0 mm 2 mps 713 mmHg 36%

    13 December, Friday

    Time Temperature Precipitation Wind Pressure Humidity
    00:00 +28°C° 0 mm 2 mps 713 mmHg 37%
    01:00 +27°C° 0 mm 2 mps 713 mmHg 38%
    02:00 +26°C° 0 mm 2 mps 713 mmHg 39%
    03:00 +26°C° 0 mm 2 mps 713 mmHg 38%
    04:00 +25°C° 0 mm 2 mps 713 mmHg 38%
    05:00 +25°C° 0 mm 2 mps 712 mmHg 38%
    06:00 +26°C° 0 mm 2 mps 713 mmHg 33%
    07:00 +26°C° 0 mm 3 mps 713 mmHg 28%
    08:00 +27°C° 0 mm 3 mps 714 mmHg 22%
    09:00 +29°C° 0 mm 4 mps 713 mmHg 21%
    10:00 +30°C° 0 mm 4 mps 713 mmHg 19%
    11:00 +32°C° 0 mm 4 mps 713 mmHg 18%
    12:00 +33°C° 0 mm 5 mps 712 mmHg 18%
    13:00 +34°C° 0 mm 5 mps 711 mmHg 19%
    14:00 +35°C° 0 mm 5 mps 710 mmHg 19%
    15:00 +35°C° 0 mm 5 mps 709 mmHg 20%
    16:00 +35°C° 0 mm 5 mps 709 mmHg 21%
    17:00 +35°C° 0 mm 5 mps 708 mmHg 22%
    18:00 +34°C° 0 mm 4 mps 708 mmHg 25%
    19:00 +33°C° 0 mm 4 mps 709 mmHg 28%
    20:00 +30°C° 0 mm 3 mps 709 mmHg 31%
    21:00 +29°C° 0 mm 3 mps 710 mmHg 34%
    22:00 +29°C° 0 mm 3 mps 710 mmHg 37%
    23:00 +28°C° 0 mm 2 mps 711 mmHg 40%

    14 December, Saturday

    Time Temperature Precipitation Wind Pressure Humidity
    00:00 +27°C° 0 mm 2 mps 710 mmHg 40%
    01:00 +27°C° 0 mm 2 mps 710 mmHg 41%
    02:00 +27°C° 0 mm 1 mps 710 mmHg 42%
    03:00 +26°C° 0 mm 2 mps 710 mmHg 43%
    04:00 +25°C° 0 mm 2 mps 710 mmHg 44%
    05:00 +25°C° 0 mm 3 mps 710 mmHg 45%
    06:00 +26°C° 0 mm 3 mps 711 mmHg 42%
    07:00 +27°C° 0 mm 4 mps 711 mmHg 39%
    08:00 +28°C° 0 mm 4 mps 712 mmHg 36%
    09:00 +30°C° 0 mm 4 mps 712 mmHg 34%
    10:00 +32°C° 0 mm 4 mps 712 mmHg 32%
    11:00 +33°C° 0 mm 4 mps 712 mmHg 30%
    12:00 +34°C° 0 mm 4 mps 711 mmHg 29%
    13:00 +35°C° 0 mm 4 mps 710 mmHg 29%
    14:00 +36°C° 0 mm 4 mps 710 mmHg 28%
    15:00 +36°C° 0 mm 4 mps 709 mmHg 27%
    16:00 +37°C° 0 mm 3 mps 709 mmHg 27%
    17:00 +37°C° 0 mm 3 mps 708 mmHg 26%
    18:00 +36°C° 0 mm 3 mps 709 mmHg 29%
    19:00 +35°C° 0 mm 4 mps 709 mmHg 32%
    20:00 +34°C° 0 mm 4 mps 710 mmHg 35%
    21:00 +33°C° 0 mm 4 mps 710 mmHg 40%
    22:00 +32°C° 0 mm 4 mps 711 mmHg 45%
    23:00 +32°C° 0 mm 4 mps 711 mmHg 50%
    Show more